Time,TemperatureF,DewpointF,PressureIn,WindDirection,WindDirectionDegrees,WindSpeedMPH,WindSpeedGustMPH,Humidity,HourlyPrecipIn,Conditions,Clouds,dailyrainin,SoftwareType,DateUTC
2013-07-08 00:01:00,78.5,73.3,29.73,NE,48,7.0,11.0,84,0.00,,,0.00,VWS V14.01,2013-07-08 05:01:00,
2013-07-08 00:06:00,78.5,72.9,29.73,NE,47,5.0,7.0,83,0.00,,,0.00,VWS V14.01,2013-07-08 05:06:00,
2013-07-08 00:11:00,78.3,72.4,29.73,NE,47,7.0,7.0,82,0.00,,,0.00,VWS V14.01,2013-07-08 05:11:00,
2013-07-08 00:16:00,76.5,72.7,29.73,NE,37,6.0,12.0,88,0.00,,,0.00,VWS V14.01,2013-07-08 05:16:00,
2013-07-08 00:21:00,75.4,73.2,29.75,NE,45,5.0,6.0,93,0.00,,,0.00,VWS V14.01,2013-07-08 05:21:00,
2013-07-08 00:26:00,75.1,74.8,29.75,NNE,18,5.0,6.0,99,0.00,,,0.00,VWS V14.01,2013-07-08 05:26:00,
2013-07-08 00:31:00,74.7,74.7,29.75,North,3,6.0,7.0,100,0.00,,,0.00,VWS V14.01,2013-07-08 05:31:00,
2013-07-08 00:36:00,74.7,74.7,29.77,North,359,5.0,8.0,100,0.00,,,0.00,VWS V14.01,2013-07-08 05:36:00,
2013-07-08 00:41:00,74.4,74.4,29.77,North,359,0.0,8.0,100,0.00,,,0.00,VWS V14.01,2013-07-08 05:41:00,
2013-07-08 00:46:00,74.4,74.4,29.77,North,359,1.0,8.0,100,0.00,,,0.00,VWS V14.01,2013-07-08 05:46:00,
2013-07-08 00:51:00,74.2,74.2,29.79,North,359,0.0,0.0,100,0.00,,,0.00,VWS V14.01,2013-07-08 05:51:00,
2013-07-08 00:56:00,74.0,74.0,29.79,North,359,0.0,0.0,100,0.00,,,0.00,VWS V14.01,2013-07-08 05:56:00,
2013-07-08 01:01:00,73.7,73.7,29.79,North,359,2.0,5.0,100,0.00,,,0.00,VWS V14.01,2013-07-08 06:01:00,
2013-07-08 01:06:00,73.5,73.5,29.79,NNW,337,0.0,3.0,100,0.00,,,0.00,VWS V14.01,2013-07-08 06:06:00,
2013-07-08 01:11:00,73.5,73.5,29.79,NNW,333,2.0,5.0,100,0.00,,,0.00,VWS V14.01,2013-07-08 06:11:00,
2013-07-08 01:16:00,73.3,73.3,29.79,WNW,295,1.0,5.0,100,0.00,,,0.00,VWS V14.01,2013-07-08 06:16:00,
2013-07-08 01:21:00,73.3,73.3,29.78,WNW,295,0.0,2.0,100,0.00,,,0.00,VWS V14.01,2013-07-08 06:21:00,
2013-07-08 01:26:00,73.2,73.2,29.78,WNW,295,0.0,2.0,100,0.00,,,0.00,VWS V14.01,2013-07-08 06:26:00,
2013-07-08 01:31:00,73.2,73.2,29.78,West,270,5.0,6.0,100,0.00,,,0.00,VWS V14.01,2013-07-08 06:31:00,
2013-07-08 01:36:00,73.3,73.3,29.78,WSW,257,2.0,7.0,100,0.00,,,0.00,VWS V14.01,2013-07-08 06:36:00,
2013-07-08 01:41:00,73.9,73.9,29.78,WSW,246,7.0,8.0,100,0.00,,,0.00,VWS V14.01,2013-07-08 06:41:00,
2013-07-08 01:46:00,73.7,73.7,29.78,WSW,248,8.0,12.0,100,0.00,,,0.00,VWS V14.01,2013-07-08 06:46:00,
2013-07-08 01:51:00,73.5,73.5,29.77,WSW,251,4.0,8.0,100,0.00,,,0.00,VWS V14.01,2013-07-08 06:51:00,
2013-07-08 01:56:00,73.2,73.2,29.77,WSW,256,2.0,8.0,100,0.00,,,0.00,VWS V14.01,2013-07-08 06:56:00,
2013-07-08 02:01:00,73.0,73.0,29.77,WNW,285,5.0,8.0,100,0.00,,,0.00,VWS V14.01,2013-07-08 07:01:00,
2013-07-08 02:06:00,72.7,72.7,29.75,WNW,288,1.0,7.0,100,0.01,,,0.01,VWS V14.01,2013-07-08 07:06:00,
2013-07-08 02:11:00,72.5,72.5,29.75,WNW,301,2.0,7.0,100,0.01,,,0.01,VWS V14.01,2013-07-08 07:11:00,
2013-07-08 02:16:00,72.3,72.3,29.75,WNW,285,4.0,7.0,100,0.01,,,0.01,VWS V14.01,2013-07-08 07:16:00,
2013-07-08 02:21:00,72.1,71.2,29.72,WSW,250,7.0,7.0,97,0.01,,,0.01,VWS V14.01,2013-07-08 07:21:00,
2013-07-08 02:26:00,71.8,71.8,29.72,WSW,258,5.0,8.0,100,0.01,,,0.01,VWS V14.01,2013-07-08 07:26:00,
2013-07-08 02:31:00,71.5,71.5,29.72,WSW,256,4.0,8.0,100,0.01,,,0.01,VWS V14.01,2013-07-08 07:31:00,
2013-07-08 02:36:00,71.1,71.1,29.71,WSW,257,3.0,5.0,100,0.01,,,0.01,VWS V14.01,2013-07-08 07:36:00,
2013-07-08 02:41:00,71.1,70.8,29.71,WSW,258,5.0,5.0,99,0.01,,,0.01,VWS V14.01,2013-07-08 07:41:00,
2013-07-08 02:46:00,71.1,69.9,29.71,WSW,253,5.0,6.0,96,0.01,,,0.01,VWS V14.01,2013-07-08 07:46:00,
2013-07-08 02:51:00,70.9,70.9,29.70,WSW,253,1.0,6.0,100,0.01,,,0.01,VWS V14.01,2013-07-08 07:51:00,
2013-07-08 02:56:00,70.9,70.0,29.70,WSW,253,2.0,6.0,97,0.01,,,0.01,VWS V14.01,2013-07-08 07:56:00,
2013-07-08 03:01:00,70.9,70.3,29.70,WSW,253,1.0,6.0,98,0.01,,,0.01,VWS V14.01,2013-07-08 08:01:00,
2013-07-08 03:06:00,70.9,70.9,29.71,SW,222,1.0,4.0,100,0.01,,,0.01,VWS V14.01,2013-07-08 08:06:00,
2013-07-08 03:11:00,71.1,69.9,29.71,SW,222,3.0,7.0,96,0.01,,,0.01,VWS V14.01,2013-07-08 08:11:00,
2013-07-08 03:16:00,71.6,71.6,29.71,NE,51,5.0,7.0,100,0.01,,,0.01,VWS V14.01,2013-07-08 08:16:00,
2013-07-08 03:21:00,73.0,69.2,29.74,NE,34,8.0,8.0,88,0.00,,,0.01,VWS V14.01,2013-07-08 08:21:00,
2013-07-08 03:26:00,73.0,71.2,29.74,NE,37,2.0,9.0,94,0.00,,,0.01,VWS V14.01,2013-07-08 08:26:00,
2013-07-08 03:31:00,72.7,72.7,29.74,NE,37,0.0,9.0,100,0.00,,,0.01,VWS V14.01,2013-07-08 08:31:00,
2013-07-08 03:36:00,72.1,72.1,29.72,NE,47,0.0,6.0,100,0.00,,,0.01,VWS V14.01,2013-07-08 08:36:00,
2013-07-08 03:41:00,71.8,71.8,29.72,NE,45,0.0,6.0,100,0.00,,,0.01,VWS V14.01,2013-07-08 08:41:00,
2013-07-08 03:46:00,71.5,71.5,29.72,NE,45,5.0,6.0,100,0.00,,,0.01,VWS V14.01,2013-07-08 08:46:00,
2013-07-08 03:51:00,71.3,71.3,29.74,NE,45,0.0,5.0,100,0.00,,,0.01,VWS V14.01,2013-07-08 08:51:00,
2013-07-08 03:56:00,71.1,71.1,29.74,NE,45,2.0,5.0,100,0.00,,,0.01,VWS V14.01,2013-07-08 08:56:00,
2013-07-08 04:01:00,70.9,70.9,29.74,NE,45,0.0,5.0,100,0.00,,,0.01,VWS V14.01,2013-07-08 09:01:00,
2013-07-08 04:06:00,70.9,70.9,29.74,NE,45,0.0,0.0,100,0.00,,,0.01,VWS V14.01,2013-07-08 09:06:00,
2013-07-08 04:11:00,70.9,70.9,29.74,NE,45,0.0,0.0,100,0.00,,,0.01,VWS V14.01,2013-07-08 09:11:00,
2013-07-08 04:16:00,70.8,70.8,29.74,NE,45,0.0,0.0,100,0.00,,,0.01,VWS V14.01,2013-07-08 09:16:00,
2013-07-08 04:21:00,70.8,70.8,29.74,NE,45,0.0,0.0,100,0.00,,,0.01,VWS V14.01,2013-07-08 09:21:00,
2013-07-08 04:26:00,70.8,70.8,29.74,NE,45,0.0,0.0,100,0.00,,,0.01,VWS V14.01,2013-07-08 09:26:00,
2013-07-08 04:31:00,70.8,70.8,29.74,NE,45,0.0,0.0,100,0.00,,,0.01,VWS V14.01,2013-07-08 09:31:00,
2013-07-08 04:36:00,70.8,70.8,29.74,NE,45,0.0,0.0,100,0.00,,,0.01,VWS V14.01,2013-07-08 09:36:00,
2013-07-08 04:41:00,70.8,70.8,29.74,NE,45,0.0,0.0,100,0.00,,,0.01,VWS V14.01,2013-07-08 09:41:00,
2013-07-08 04:46:00,70.9,70.9,29.74,NE,45,0.0,0.0,100,0.00,,,0.01,VWS V14.01,2013-07-08 09:46:00,
2013-07-08 04:51:00,71.1,71.1,29.74,NE,45,0.0,0.0,100,0.00,,,0.01,VWS V14.01,2013-07-08 09:51:00,
2013-07-08 04:56:00,71.3,71.3,29.74,NE,45,0.0,0.0,100,0.00,,,0.01,VWS V14.01,2013-07-08 09:56:00,
2013-07-08 05:01:00,71.5,71.5,29.74,NE,45,0.0,0.0,100,0.00,,,0.01,VWS V14.01,2013-07-08 10:01:00,
2013-07-08 05:06:00,71.5,71.5,29.74,NE,45,0.0,0.0,100,0.00,,,0.01,VWS V14.01,2013-07-08 10:06:00,
2013-07-08 05:11:00,71.3,71.3,29.74,NE,45,0.0,0.0,100,0.00,,,0.01,VWS V14.01,2013-07-08 10:11:00,
2013-07-08 05:16:00,71.1,71.1,29.74,NE,45,0.0,0.0,100,0.00,,,0.01,VWS V14.01,2013-07-08 10:16:00,
2013-07-08 05:21:00,70.9,70.9,29.74,NE,45,0.0,0.0,100,0.00,,,0.01,VWS V14.01,2013-07-08 10:21:00,
2013-07-08 05:26:00,70.8,70.8,29.74,NE,45,0.0,0.0,100,0.00,,,0.01,VWS V14.01,2013-07-08 10:26:00,
2013-07-08 05:31:00,70.6,70.6,29.74,NE,45,0.0,0.0,100,0.00,,,0.01,VWS V14.01,2013-07-08 10:31:00,
2013-07-08 05:36:00,70.6,70.6,29.74,NE,45,0.0,0.0,100,0.00,,,0.01,VWS V14.01,2013-07-08 10:36:00,
2013-07-08 05:41:00,70.6,70.6,29.74,NE,45,0.0,0.0,100,0.00,,,0.01,VWS V14.01,2013-07-08 10:41:00,
2013-07-08 05:46:00,70.6,70.6,29.74,NE,45,0.0,0.0,100,0.00,,,0.01,VWS V14.01,2013-07-08 10:46:00,
2013-07-08 05:51:00,70.6,70.6,29.74,NE,45,0.0,0.0,100,0.00,,,0.01,VWS V14.01,2013-07-08 10:51:00,
2013-07-08 05:56:00,70.8,70.8,29.74,NE,45,0.0,0.0,100,0.00,,,0.01,VWS V14.01,2013-07-08 10:56:00,
2013-07-08 06:01:00,70.8,70.8,29.74,NE,45,0.0,0.0,100,0.00,,,0.01,VWS V14.01,2013-07-08 11:01:00,
2013-07-08 06:06:00,70.9,70.9,29.74,NE,45,0.0,0.0,100,0.00,,,0.01,VWS V14.01,2013-07-08 11:06:00,
2013-07-08 06:11:00,70.9,70.9,29.74,NE,45,0.0,0.0,100,0.00,,,0.01,VWS V14.01,2013-07-08 11:11:00,
2013-07-08 06:16:00,70.9,70.9,29.74,NE,45,0.0,0.0,100,0.00,,,0.01,VWS V14.01,2013-07-08 11:16:00,
2013-07-08 06:21:00,70.9,70.9,29.75,NE,45,0.0,0.0,100,0.00,,,0.01,VWS V14.01,2013-07-08 11:21:00,
2013-07-08 06:26:00,70.9,70.9,29.75,NE,45,0.0,0.0,100,0.00,,,0.01,VWS V14.01,2013-07-08 11:26:00,
2013-07-08 06:31:00,71.1,71.1,29.75,NE,45,0.0,0.0,100,0.00,,,0.01,VWS V14.01,2013-07-08 11:31:00,
2013-07-08 06:36:00,71.5,71.5,29.75,NE,45,0.0,0.0,100,0.00,,,0.01,VWS V14.01,2013-07-08 11:36:00,
2013-07-08 06:41:00,71.5,71.5,29.75,NE,45,0.0,0.0,100,0.00,,,0.01,VWS V14.01,2013-07-08 11:41:00,
2013-07-08 06:46:00,71.5,71.5,29.75,NE,45,0.0,0.0,100,0.00,,,0.01,VWS V14.01,2013-07-08 11:46:00,
2013-07-08 06:51:00,71.5,71.5,29.74,NE,45,0.0,0.0,100,0.00,,,0.01,VWS V14.01,2013-07-08 11:51:00,
2013-07-08 06:56:00,71.5,71.5,29.74,NE,45,0.0,0.0,100,0.00,,,0.01,VWS V14.01,2013-07-08 11:56:00,
2013-07-08 07:01:00,71.6,71.6,29.74,NE,45,0.0,0.0,100,0.00,,,0.01,VWS V14.01,2013-07-08 12:01:00,
2013-07-08 07:07:00,72.0,72.0,29.74,NE,45,1.0,2.0,100,0.00,,,0.01,VWS V14.01,2013-07-08 12:07:00,
2013-07-08 07:12:00,72.1,72.1,29.74,NE,35,3.0,5.0,100,0.00,,,0.01,VWS V14.01,2013-07-08 12:12:00,
2013-07-08 07:17:00,72.0,72.0,29.74,North,6,1.0,6.0,100,0.00,,,0.01,VWS V14.01,2013-07-08 12:17:00,
2013-07-08 07:22:00,72.0,72.0,29.75,North,6,5.0,6.0,100,0.00,,,0.01,VWS V14.01,2013-07-08 12:22:00,
2013-07-08 07:27:00,71.6,71.6,29.75,North,4,4.0,7.0,100,0.00,,,0.01,VWS V14.01,2013-07-08 12:27:00,
2013-07-08 07:32:00,71.5,71.5,29.75,North,3,5.0,7.0,100,0.00,,,0.01,VWS V14.01,2013-07-08 12:32:00,
2013-07-08 07:37:00,71.6,71.6,29.76,North,3,5.0,7.0,100,0.00,,,0.01,VWS V14.01,2013-07-08 12:37:00,
2013-07-08 07:42:00,71.6,71.6,29.76,North,0,2.0,8.0,100,0.00,,,0.01,VWS V14.01,2013-07-08 12:42:00,
2013-07-08 07:47:00,71.8,71.8,29.76,North,3,5.0,8.0,100,0.00,,,0.01,VWS V14.01,2013-07-08 12:47:00,
2013-07-08 07:52:00,71.8,71.8,29.76,North,3,5.0,7.0,100,0.00,,,0.01,VWS V14.01,2013-07-08 12:52:00,
2013-07-08 07:57:00,72.0,72.0,29.76,North,3,5.0,7.0,100,0.00,,,0.01,VWS V14.01,2013-07-08 12:57:00,
2013-07-08 08:02:00,72.1,72.1,29.76,North,3,1.0,7.0,100,0.00,,,0.01,VWS V14.01,2013-07-08 13:02:00,
2013-07-08 08:07:00,72.5,72.5,29.76,North,3,2.0,3.0,100,0.00,,,0.01,VWS V14.01,2013-07-08 13:07:00,
2013-07-08 08:12:00,72.8,72.8,29.76,North,3,1.0,5.0,100,0.00,,,0.01,VWS V14.01,2013-07-08 13:12:00,
2013-07-08 08:17:00,73.2,73.2,29.76,North,3,0.0,5.0,100,0.00,,,0.01,VWS V14.01,2013-07-08 13:17:00,
2013-07-08 08:22:00,73.3,73.3,29.77,North,3,0.0,2.0,100,0.00,,,0.01,VWS V14.01,2013-07-08 13:22:00,
2013-07-08 08:27:00,73.3,73.3,29.77,North,3,0.0,3.0,100,0.00,,,0.01,VWS V14.01,2013-07-08 13:27:00,
2013-07-08 08:32:00,73.5,73.5,29.77,North,3,0.0,3.0,100,0.00,,,0.01,VWS V14.01,2013-07-08 13:32:00,
2013-07-08 08:37:00,73.5,73.5,29.77,North,3,0.0,0.0,100,0.00,,,0.01,VWS V14.01,2013-07-08 13:37:00,
2013-07-08 08:42:00,73.5,73.5,29.77,North,3,0.0,0.0,100,0.00,,,0.01,VWS V14.01,2013-07-08 13:42:00,
2013-07-08 08:47:00,73.7,73.7,29.77,North,3,0.0,0.0,100,0.00,,,0.01,VWS V14.01,2013-07-08 13:47:00,
2013-07-08 08:52:00,73.7,73.7,29.77,North,3,0.0,0.0,100,0.00,,,0.01,VWS V14.01,2013-07-08 13:52:00,
2013-07-08 08:57:00,73.9,73.9,29.77,North,3,0.0,0.0,100,0.00,,,0.01,VWS V14.01,2013-07-08 13:57:00,
2013-07-08 09:02:00,73.9,73.9,29.77,North,3,0.0,0.0,100,0.00,,,0.01,VWS V14.01,2013-07-08 14:02:00,
2013-07-08 09:07:00,73.9,73.9,29.77,North,3,0.0,3.0,100,0.00,,,0.01,VWS V14.01,2013-07-08 14:07:00,
2013-07-08 09:12:00,74.2,73.6,29.77,NE,45,9.0,9.0,98,0.00,,,0.01,VWS V14.01,2013-07-08 14:12:00,
2013-07-08 09:17:00,73.9,73.6,29.77,NE,38,3.0,9.0,99,0.00,,,0.01,VWS V14.01,2013-07-08 14:17:00,
2013-07-08 09:22:00,73.9,73.9,29.78,NE,37,5.0,5.0,100,0.00,,,0.01,VWS V14.01,2013-07-08 14:22:00,
2013-07-08 09:27:00,73.5,73.5,29.78,NE,37,3.0,7.0,100,0.00,,,0.01,VWS V14.01,2013-07-08 14:27:00,
2013-07-08 09:32:00,73.7,73.7,29.78,NE,37,4.0,7.0,100,0.00,,,0.01,VWS V14.01,2013-07-08 14:32:00,
2013-07-08 09:37:00,73.9,73.9,29.77,NE,37,3.0,5.0,100,0.00,,,0.01,VWS V14.01,2013-07-08 14:37:00,
2013-07-08 09:42:00,74.0,74.0,29.77,NE,37,2.0,5.0,100,0.00,,,0.01,VWS V14.01,2013-07-08 14:42:00,
2013-07-08 09:47:00,74.4,74.4,29.77,NE,37,0.0,5.0,100,0.00,,,0.01,VWS V14.01,2013-07-08 14:47:00,
2013-07-08 09:52:00,74.6,74.6,29.77,NE,37,0.0,5.0,100,0.00,,,0.01,VWS V14.01,2013-07-08 14:52:00,
2013-07-08 09:57:00,74.7,74.7,29.77,NE,37,0.0,5.0,100,0.00,,,0.01,VWS V14.01,2013-07-08 14:57:00,
2013-07-08 10:02:00,75.1,75.1,29.77,NE,37,2.0,5.0,100,0.00,,,0.01,VWS V14.01,2013-07-08 15:02:00,
2013-07-08 10:07:00,75.4,75.4,29.77,NE,37,1.0,2.0,100,0.00,,,0.01,VWS V14.01,2013-07-08 15:07:00,
2013-07-08 10:12:00,76.0,75.1,29.77,NE,37,2.0,5.0,97,0.00,,,0.01,VWS V14.01,2013-07-08 15:12:00,
2013-07-08 10:17:00,76.1,74.6,29.77,NE,37,0.0,5.0,95,0.00,,,0.01,VWS V14.01,2013-07-08 15:17:00,
2013-07-08 10:22:00,76.3,74.1,29.77,NE,37,1.0,3.0,93,0.00,,,0.01,VWS V14.01,2013-07-08 15:22:00,
2013-07-08 10:27:00,76.5,74.0,29.77,NE,37,3.0,4.0,92,0.00,,,0.01,VWS V14.01,2013-07-08 15:27:00,
2013-07-08 10:32:00,76.8,74.6,29.77,NE,37,0.0,5.0,93,0.00,,,0.01,VWS V14.01,2013-07-08 15:32:00,
2013-07-08 10:37:00,77.0,74.2,29.77,NE,37,2.0,6.0,91,0.00,,,0.01,VWS V14.01,2013-07-08 15:37:00,
2013-07-08 10:42:00,77.2,74.4,29.77,NE,37,3.0,6.0,91,0.00,,,0.01,VWS V14.01,2013-07-08 15:42:00,
2013-07-08 10:47:00,77.2,73.7,29.76,NE,38,0.0,6.0,89,0.00,,,0.01,VWS V14.01,2013-07-08 15:47:00,
2013-07-08 10:52:00,77.6,73.8,29.76,NE,38,0.0,5.0,88,0.00,,,0.01,VWS V14.01,2013-07-08 15:52:00,
2013-07-08 10:57:00,77.9,73.7,29.76,NE,38,0.0,5.0,87,0.00,,,0.01,VWS V14.01,2013-07-08 15:57:00,
2013-07-08 11:02:00,78.1,73.2,29.75,NE,38,0.0,5.0,85,0.00,,,0.01,VWS V14.01,2013-07-08 16:02:00,
2013-07-08 11:07:00,78.3,72.7,29.75,NE,38,4.0,5.0,83,0.00,,,0.01,VWS V14.01,2013-07-08 16:07:00,
2013-07-08 11:12:00,78.6,73.0,29.75,NE,38,0.0,5.0,83,0.00,,,0.01,VWS V14.01,2013-07-08 16:12:00,
2013-07-08 11:17:00,78.8,72.1,29.76,NE,38,2.0,5.0,80,0.00,,,0.01,VWS V14.01,2013-07-08 16:17:00,
2013-07-08 11:22:00,79.0,72.7,29.76,NE,38,2.0,5.0,81,0.00,,,0.01,VWS V14.01,2013-07-08 16:22:00,
2013-07-08 11:27:00,79.2,72.5,29.76,NE,38,0.0,5.0,80,0.00,,,0.01,VWS V14.01,2013-07-08 16:27:00,
2013-07-08 11:32:00,79.4,72.3,29.75,NE,38,2.0,5.0,79,0.00,,,0.01,VWS V14.01,2013-07-08 16:32:00,
2013-07-08 11:37:00,79.6,73.6,29.75,NE,38,1.0,5.0,82,0.00,,,0.01,VWS V14.01,2013-07-08 16:37:00,
2013-07-08 11:42:00,79.8,72.7,29.75,NE,38,0.0,5.0,79,0.00,,,0.01,VWS V14.01,2013-07-08 16:42:00,
2013-07-08 11:47:00,79.8,72.7,29.75,NE,38,1.0,5.0,79,0.00,,,0.01,VWS V14.01,2013-07-08 16:47:00,
2013-07-08 11:52:00,79.9,72.1,29.75,NE,38,0.0,4.0,77,0.00,,,0.01,VWS V14.01,2013-07-08 16:52:00,
2013-07-08 11:57:00,80.3,72.4,29.75,NE,38,1.0,4.0,77,0.00,,,0.01,VWS V14.01,2013-07-08 16:57:00,
2013-07-08 12:02:00,80.5,70.7,29.75,NE,38,0.0,4.0,72,0.00,,,0.01,VWS V14.01,2013-07-08 17:02:00,
2013-07-08 12:07:00,80.7,71.2,29.75,NE,38,0.0,2.0,73,0.00,,,0.01,VWS V14.01,2013-07-08 17:07:00,
2013-07-08 12:12:00,81.2,71.7,29.75,NE,38,0.0,2.0,73,0.00,,,0.01,VWS V14.01,2013-07-08 17:12:00,
2013-07-08 12:18:00,81.4,70.7,29.76,NE,38,0.0,3.0,70,0.00,,,0.01,VWS V14.01,2013-07-08 17:18:00,
2013-07-08 12:23:00,81.6,70.0,29.76,NE,38,0.0,2.0,68,0.00,,,0.01,VWS V14.01,2013-07-08 17:23:00,
2013-07-08 12:28:00,82.0,70.8,29.76,NE,38,0.0,2.0,69,0.00,,,0.01,VWS V14.01,2013-07-08 17:28:00,
2013-07-08 12:33:00,82.6,71.4,29.75,NE,38,0.0,2.0,69,0.00,,,0.01,VWS V14.01,2013-07-08 17:33:00,
2013-07-08 12:38:00,82.6,70.5,29.75,NE,38,1.0,5.0,67,0.00,,,0.01,VWS V14.01,2013-07-08 17:38:00,
2013-07-08 12:43:00,82.8,70.7,29.75,NE,38,0.0,5.0,67,0.00,,,0.01,VWS V14.01,2013-07-08 17:43:00,
2013-07-08 12:48:00,83.0,71.4,29.76,NE,38,0.0,5.0,68,0.00,,,0.01,VWS V14.01,2013-07-08 17:48:00,
2013-07-08 12:53:00,83.2,71.1,29.76,NE,38,0.0,2.0,67,0.00,,,0.01,VWS V14.01,2013-07-08 17:53:00,
2013-07-08 12:58:00,83.6,70.1,29.76,NE,38,0.0,2.0,64,0.00,,,0.01,VWS V14.01,2013-07-08 17:58:00,
2013-07-08 13:03:00,83.6,71.1,29.76,NE,38,0.0,0.0,66,0.00,,,0.01,VWS V14.01,2013-07-08 18:03:00,
2013-07-08 13:08:00,83.6,71.1,29.76,NE,38,0.0,2.0,66,0.00,,,0.01,VWS V14.01,2013-07-08 18:08:00,
2013-07-08 13:13:00,84.0,70.1,29.76,NE,38,1.0,5.0,63,0.00,,,0.01,VWS V14.01,2013-07-08 18:13:00,
2013-07-08 13:18:00,84.5,70.5,29.75,NE,38,1.0,1.0,63,0.00,,,0.01,VWS V14.01,2013-07-08 18:18:00,
2013-07-08 13:23:00,84.5,70.5,29.75,NE,40,0.0,5.0,63,0.00,,,0.01,VWS V14.01,2013-07-08 18:23:00,
2013-07-08 13:28:00,84.7,70.2,29.75,NE,40,0.0,5.0,62,0.00,,,0.01,VWS V14.01,2013-07-08 18:28:00,
2013-07-08 13:34:00,84.7,69.8,29.74,NE,40,0.0,3.0,61,0.00,,,0.01,VWS V14.01,2013-07-08 18:34:00,
2013-07-08 13:39:00,85.1,70.6,29.74,SSE,167,0.0,5.0,62,0.00,,,0.01,VWS V14.01,2013-07-08 18:39:00,
2013-07-08 13:44:00,84.7,70.2,29.74,ENE,62,2.0,6.0,62,0.00,,,0.01,VWS V14.01,2013-07-08 18:44:00,
2013-07-08 13:49:00,84.7,70.2,29.74,ENE,61,0.0,4.0,62,0.00,,,0.01,VWS V14.01,2013-07-08 18:49:00,
2013-07-08 13:54:00,85.1,69.7,29.74,ENE,61,0.0,4.0,60,0.00,,,0.01,VWS V14.01,2013-07-08 18:54:00,
2013-07-08 13:59:00,85.1,70.2,29.74,ENE,61,0.0,5.0,61,0.00,,,0.01,VWS V14.01,2013-07-08 18:59:00,
2013-07-08 14:04:00,84.9,70.0,29.74,NE,55,4.0,7.0,61,0.00,,,0.01,VWS V14.01,2013-07-08 19:04:00,
2013-07-08 14:10:00,85.1,70.6,29.74,NE,54,2.0,7.0,62,0.00,,,0.01,VWS V14.01,2013-07-08 19:10:00,
2013-07-08 14:15:00,85.3,69.4,29.74,NE,54,1.0,7.0,59,0.00,,,0.01,VWS V14.01,2013-07-08 19:15:00,
2013-07-08 14:20:00,85.5,69.6,29.74,NE,54,1.0,2.0,59,0.00,,,0.01,VWS V14.01,2013-07-08 19:20:00,
2013-07-08 14:25:00,85.9,69.9,29.74,NE,54,4.0,4.0,59,0.00,,,0.01,VWS V14.01,2013-07-08 19:25:00,
2013-07-08 14:30:00,86.3,69.8,29.74,NE,52,2.0,4.0,58,0.00,,,0.01,VWS V14.01,2013-07-08 19:30:00,
2013-07-08 14:36:00,86.3,69.3,29.74,NE,48,2.0,5.0,57,0.00,,,0.01,VWS V14.01,2013-07-08 19:36:00,
2013-07-08 14:41:00,86.5,70.5,29.74,NE,48,1.0,5.0,59,0.00,,,0.01,VWS V14.01,2013-07-08 19:41:00,
2013-07-08 14:46:00,86.7,70.2,29.74,NE,48,0.0,5.0,58,0.00,,,0.01,VWS V14.01,2013-07-08 19:46:00,
2013-07-08 14:51:00,87.0,70.4,29.73,NE,48,1.0,3.0,58,0.00,,,0.01,VWS V14.01,2013-07-08 19:51:00,
2013-07-08 14:57:00,87.4,70.3,29.73,NE,48,0.0,3.0,57,0.00,,,0.01,VWS V14.01,2013-07-08 19:57:00,
2013-07-08 15:02:00,87.2,70.1,29.73,NE,48,2.0,5.0,57,0.00,,,0.01,VWS V14.01,2013-07-08 20:02:00,
2013-07-08 15:07:00,87.0,70.9,29.73,NE,45,1.0,7.0,59,0.00,,,0.01,VWS V14.01,2013-07-08 20:07:00,
2013-07-08 15:12:00,87.2,69.6,29.73,NE,45,1.0,7.0,56,0.00,,,0.01,VWS V14.01,2013-07-08 20:12:00,
2013-07-08 15:17:00,87.2,69.1,29.72,NE,45,1.0,7.0,55,0.00,,,0.01,VWS V14.01,2013-07-08 20:17:00,
2013-07-08 15:23:00,87.4,68.7,29.72,NE,45,2.0,5.0,54,0.00,,,0.01,VWS V14.01,2013-07-08 20:23:00,
2013-07-08 15:28:00,87.6,68.4,29.72,NE,45,0.0,5.0,53,0.00,,,0.01,VWS V14.01,2013-07-08 20:28:00,
2013-07-08 15:33:00,87.8,68.6,29.72,NE,45,0.0,0.0,53,0.00,,,0.01,VWS V14.01,2013-07-08 20:33:00,
2013-07-08 15:38:00,87.8,68.6,29.72,NE,45,6.0,6.0,53,0.00,,,0.01,VWS V14.01,2013-07-08 20:38:00,
2013-07-08 15:44:00,87.4,68.7,29.72,NE,45,2.0,6.0,54,0.00,,,0.01,VWS V14.01,2013-07-08 20:44:00,
2013-07-08 15:49:00,87.6,68.4,29.72,NE,45,0.0,2.0,53,0.00,,,0.01,VWS V14.01,2013-07-08 20:49:00,
2013-07-08 15:55:00,87.4,68.7,29.72,NE,45,0.0,3.0,54,0.00,,,0.01,VWS V14.01,2013-07-08 20:55:00,
2013-07-08 16:00:00,87.4,69.8,29.72,NE,45,0.0,5.0,56,0.00,,,0.01,VWS V14.01,2013-07-08 21:00:00,
2013-07-08 16:05:00,87.4,70.8,29.71,NE,45,0.0,2.0,58,0.00,,,0.01,VWS V14.01,2013-07-08 21:05:00,
2013-07-08 16:10:00,87.0,70.4,29.71,NE,45,5.0,7.0,58,0.00,,,0.01,VWS V14.01,2013-07-08 21:10:00,
2013-07-08 16:15:00,87.0,70.4,29.71,NE,45,4.0,7.0,58,0.00,,,0.01,VWS V14.01,2013-07-08 21:15:00,
2013-07-08 16:21:00,87.2,71.6,29.71,NE,44,6.0,7.0,60,0.00,,,0.01,VWS V14.01,2013-07-08 21:21:00,
2013-07-08 16:26:00,87.4,70.8,29.71,NE,44,1.0,7.0,58,0.00,,,0.01,VWS V14.01,2013-07-08 21:26:00,
2013-07-08 16:31:00,87.4,69.8,29.71,NE,44,2.0,7.0,56,0.00,,,0.01,VWS V14.01,2013-07-08 21:31:00,
2013-07-08 16:36:00,87.6,68.9,29.69,NE,45,0.0,6.0,54,0.00,,,0.01,VWS V14.01,2013-07-08 21:36:00,
2013-07-08 16:41:00,88.0,69.8,29.69,NE,45,0.0,6.0,55,0.00,,,0.01,VWS V14.01,2013-07-08 21:41:00,
2013-07-08 16:46:00,88.2,70.0,29.69,NE,47,1.0,7.0,55,0.00,,,0.01,VWS V14.01,2013-07-08 21:46:00,
2013-07-08 16:51:00,88.2,68.4,29.68,NE,47,1.0,7.0,52,0.00,,,0.01,VWS V14.01,2013-07-08 21:51:00,
2013-07-08 16:56:00,88.6,67.6,29.68,NE,47,1.0,7.0,50,0.00,,,0.01,VWS V14.01,2013-07-08 21:56:00,
2013-07-08 17:01:00,88.6,67.6,29.68,NE,47,0.0,7.0,50,0.00,,,0.01,VWS V14.01,2013-07-08 22:01:00,
2013-07-08 17:06:00,88.8,67.2,29.68,NE,47,1.0,4.0,49,0.00,,,0.01,VWS V14.01,2013-07-08 22:06:00,
2013-07-08 17:12:00,88.8,68.9,29.68,NE,47,2.0,7.0,52,0.00,,,0.01,VWS V14.01,2013-07-08 22:12:00,
2013-07-08 17:17:00,89.0,66.2,29.68,NE,47,3.0,7.0,47,0.00,,,0.01,VWS V14.01,2013-07-08 22:17:00,
2013-07-08 17:22:00,89.3,66.4,29.68,NE,47,2.0,6.0,47,0.00,,,0.01,VWS V14.01,2013-07-08 22:22:00,
2013-07-08 17:27:00,89.5,67.8,29.68,NE,47,2.0,6.0,49,0.00,,,0.01,VWS V14.01,2013-07-08 22:27:00,
2013-07-08 17:32:00,89.3,68.2,29.67,NE,47,2.0,6.0,50,0.00,,,0.01,VWS V14.01,2013-07-08 22:32:00,
2013-07-08 17:38:00,89.5,68.4,29.67,NE,47,0.0,3.0,50,0.00,,,0.01,VWS V14.01,2013-07-08 22:38:00,
2013-07-08 17:43:00,89.3,68.8,29.67,NE,47,0.0,3.0,51,0.00,,,0.01,VWS V14.01,2013-07-08 22:43:00,
2013-07-08 17:47:00,89.0,68.5,29.67,NE,47,2.0,5.0,51,0.00,,,0.01,VWS V14.01,2013-07-08 22:47:00,
2013-07-08 17:53:00,89.0,67.4,29.67,NE,47,5.0,6.0,49,0.00,,,0.01,VWS V14.01,2013-07-08 22:53:00,
2013-07-08 17:58:00,89.3,66.4,29.67,NE,47,5.0,6.0,47,0.00,,,0.01,VWS V14.01,2013-07-08 22:58:00,
2013-07-08 18:04:00,89.3,65.8,29.67,NE,48,2.0,2.0,46,0.00,,,0.01,VWS V14.01,2013-07-08 23:04:00,
2013-07-08 18:09:00,89.3,68.8,29.67,NE,48,2.0,3.0,51,0.00,,,0.01,VWS V14.01,2013-07-08 23:09:00,
2013-07-08 18:14:00,88.8,69.5,29.67,NE,48,4.0,6.0,53,0.00,,,0.01,VWS V14.01,2013-07-08 23:14:00,
2013-07-08 18:19:00,88.8,67.2,29.67,NE,48,1.0,5.0,49,0.00,,,0.01,VWS V14.01,2013-07-08 23:19:00,
2013-07-08 18:24:00,88.8,68.4,29.67,NE,48,2.0,5.0,51,0.00,,,0.01,VWS V14.01,2013-07-08 23:24:00,
2013-07-08 18:30:00,88.8,67.2,29.67,NE,47,3.0,6.0,49,0.00,,,0.01,VWS V14.01,2013-07-08 23:30:00,
2013-07-08 18:35:00,89.0,67.4,29.66,NE,47,2.0,5.0,49,0.00,,,0.01,VWS V14.01,2013-07-08 23:35:00,
2013-07-08 18:41:00,89.0,67.4,29.66,NE,47,3.0,6.0,49,0.00,,,0.01,VWS V14.01,2013-07-08 23:41:00,
2013-07-08 18:46:00,88.8,68.9,29.66,NE,47,1.0,6.0,52,0.00,,,0.01,VWS V14.01,2013-07-08 23:46:00,
2013-07-08 18:51:00,88.6,69.3,29.65,NE,47,2.0,5.0,53,0.00,,,0.01,VWS V14.01,2013-07-08 23:51:00,
2013-07-08 18:56:00,88.4,70.2,29.65,NE,47,5.0,7.0,55,0.00,,,0.01,VWS V14.01,2013-07-08 23:56:00,
2013-07-08 19:02:00,88.2,68.9,29.65,NE,47,7.0,7.0,53,0.00,,,0.01,VWS V14.01,2013-07-09 00:02:00,
2013-07-08 19:07:00,88.2,68.9,29.65,NE,47,7.0,7.0,53,0.00,,,0.01,VWS V14.01,2013-07-09 00:07:00,
2013-07-08 19:12:00,88.2,68.4,29.65,NE,47,2.0,7.0,52,0.00,,,0.01,VWS V14.01,2013-07-09 00:12:00,
2013-07-08 19:17:00,88.2,70.5,29.64,NE,47,3.0,7.0,56,0.00,,,0.01,VWS V14.01,2013-07-09 00:17:00,
2013-07-08 19:22:00,87.8,70.7,29.64,NE,47,5.0,5.0,57,0.00,,,0.01,VWS V14.01,2013-07-09 00:22:00,
2013-07-08 19:28:00,87.8,68.6,29.64,NE,47,2.0,5.0,53,0.00,,,0.01,VWS V14.01,2013-07-09 00:28:00,
2013-07-08 19:33:00,87.8,69.1,29.64,NE,47,1.0,6.0,54,0.00,,,0.01,VWS V14.01,2013-07-09 00:33:00,
2013-07-08 19:38:00,87.6,70.5,29.64,NE,47,7.0,7.0,57,0.00,,,0.01,VWS V14.01,2013-07-09 00:38:00,
2013-07-08 19:43:00,87.4,71.3,29.64,NE,47,2.0,7.0,59,0.00,,,0.01,VWS V14.01,2013-07-09 00:43:00,
2013-07-08 19:48:00,87.2,70.1,29.64,NE,47,2.0,5.0,57,0.00,,,0.01,VWS V14.01,2013-07-09 00:48:00,
2013-07-08 19:54:00,87.0,71.4,29.64,NE,47,2.0,5.0,60,0.00,,,0.01,VWS V14.01,2013-07-09 00:54:00,
2013-07-08 19:59:00,86.7,71.2,29.64,NE,47,2.0,5.0,60,0.00,,,0.01,VWS V14.01,2013-07-09 00:59:00,
2013-07-08 20:04:00,86.5,71.0,29.64,NE,47,4.0,5.0,60,0.00,,,0.01,VWS V14.01,2013-07-09 01:04:00,
2013-07-08 20:09:00,86.3,71.8,29.64,NE,47,3.0,5.0,62,0.00,,,0.01,VWS V14.01,2013-07-09 01:09:00,
2013-07-08 20:14:00,85.9,72.3,29.64,NE,47,2.0,5.0,64,0.00,,,0.01,VWS V14.01,2013-07-09 01:14:00,
2013-07-08 20:19:00,85.7,73.0,29.64,NE,47,2.0,2.0,66,0.00,,,0.01,VWS V14.01,2013-07-09 01:19:00,
2013-07-08 20:24:00,85.5,72.4,29.64,NE,47,1.0,3.0,65,0.00,,,0.01,VWS V14.01,2013-07-09 01:24:00,
2013-07-08 20:29:00,85.3,72.2,29.64,NE,47,0.0,5.0,65,0.00,,,0.01,VWS V14.01,2013-07-09 01:29:00,
2013-07-08 20:34:00,85.1,72.5,29.65,NE,47,0.0,3.0,66,0.00,,,0.01,VWS V14.01,2013-07-09 01:34:00,
2013-07-08 20:39:00,84.9,72.3,29.65,NE,47,1.0,3.0,66,0.00,,,0.01,VWS V14.01,2013-07-09 01:39:00,
2013-07-08 20:45:00,84.9,71.8,29.65,NE,47,0.0,5.0,65,0.00,,,0.01,VWS V14.01,2013-07-09 01:45:00,
2013-07-08 20:50:00,84.7,71.2,29.65,NE,47,1.0,5.0,64,0.00,,,0.01,VWS V14.01,2013-07-09 01:50:00,
2013-07-08 20:55:00,84.5,71.9,29.65,NE,47,1.0,5.0,66,0.00,,,0.01,VWS V14.01,2013-07-09 01:55:00,
2013-07-08 21:01:00,84.5,70.1,29.65,NE,47,1.0,5.0,62,0.00,,,0.01,VWS V14.01,2013-07-09 02:01:00,
2013-07-08 21:06:00,84.5,67.1,29.65,NE,47,0.0,5.0,56,0.00,,,0.01,VWS V14.01,2013-07-09 02:06:00,
2013-07-08 21:11:00,84.5,66.6,29.65,NE,47,2.0,5.0,55,0.00,,,0.01,VWS V14.01,2013-07-09 02:11:00,
2013-07-08 21:16:00,84.5,66.6,29.65,NE,48,1.0,7.0,55,0.00,,,0.01,VWS V14.01,2013-07-09 02:16:00,
2013-07-08 21:21:00,84.1,66.2,29.65,NE,49,1.0,5.0,55,0.00,,,0.01,VWS V14.01,2013-07-09 02:21:00,
2013-07-08 21:26:00,83.8,66.4,29.65,NE,49,2.0,5.0,56,0.00,,,0.01,VWS V14.01,2013-07-09 02:26:00,
2013-07-08 21:31:00,83.6,65.2,29.65,NE,49,3.0,5.0,54,0.00,,,0.01,VWS V14.01,2013-07-09 02:31:00,
2013-07-08 21:36:00,83.4,65.6,29.65,NE,49,0.0,5.0,55,0.00,,,0.01,VWS V14.01,2013-07-09 02:36:00,
2013-07-08 21:41:00,83.4,66.1,29.65,SSE,148,0.0,7.0,56,0.00,,,0.01,VWS V14.01,2013-07-09 02:41:00,
2013-07-08 21:46:00,82.6,66.3,29.65,SSE,147,2.0,7.0,58,0.00,,,0.01,VWS V14.01,2013-07-09 02:46:00,
2013-07-08 21:52:00,82.4,65.7,29.66,SSE,150,4.0,4.0,57,0.00,,,0.01,VWS V14.01,2013-07-09 02:52:00,
2013-07-08 21:57:00,82.2,64.4,29.66,SSE,167,1.0,5.0,55,0.00,,,0.01,VWS V14.01,2013-07-09 02:57:00,
2013-07-08 22:03:00,82.0,64.3,29.67,SSE,167,0.0,9.0,55,0.00,,,0.01,VWS V14.01,2013-07-09 03:03:00,
2013-07-08 22:08:00,81.8,64.1,29.67,SSE,167,0.0,3.0,55,0.00,,,0.01,VWS V14.01,2013-07-09 03:08:00,
2013-07-08 22:13:00,81.8,64.6,29.67,South,174,0.0,5.0,56,0.00,,,0.01,VWS V14.01,2013-07-09 03:13:00,
2013-07-08 22:18:00,81.4,64.2,29.64,South,174,1.0,2.0,56,0.00,,,0.01,VWS V14.01,2013-07-09 03:18:00,
2013-07-08 22:23:00,81.4,64.7,29.64,South,174,0.0,5.0,57,0.00,,,0.01,VWS V14.01,2013-07-09 03:23:00,
2013-07-08 22:28:00,81.2,64.5,29.64,South,174,0.0,5.0,57,0.00,,,0.01,VWS V14.01,2013-07-09 03:28:00,
2013-07-08 22:33:00,81.1,63.9,29.66,South,174,6.0,6.0,56,0.00,,,0.01,VWS V14.01,2013-07-09 03:33:00,
2013-07-08 22:38:00,80.7,64.1,29.66,South,176,5.0,7.0,57,0.00,,,0.01,VWS V14.01,2013-07-09 03:38:00,
2013-07-08 22:43:00,80.7,64.6,29.66,SSW,208,12.0,12.0,58,0.00,,,0.01,VWS V14.01,2013-07-09 03:43:00,
2013-07-08 22:48:00,80.5,64.9,29.68,SSW,198,12.0,12.0,59,0.00,,,0.01,VWS V14.01,2013-07-09 03:48:00,
2013-07-08 22:54:00,80.7,64.6,29.68,West,260,5.0,12.0,58,0.00,,,0.01,VWS V14.01,2013-07-09 03:54:00,
2013-07-08 22:59:00,80.7,66.9,29.68,WNW,291,0.0,13.0,63,0.00,,,0.01,VWS V14.01,2013-07-09 03:59:00,
2013-07-08 23:01:00,80.7,67.8,29.68,WNW,291,5.0,13.0,65,0.00,,,0.01,VWS V14.01,2013-07-09 04:01:00,
2013-07-08 23:06:00,80.7,66.0,29.76,SW,230,6.0,14.0,61,0.00,,,0.01,VWS V14.01,2013-07-09 04:06:00,
2013-07-08 23:11:00,79.6,69.4,29.76,WSW,251,2.0,14.0,71,0.00,,,0.01,VWS V14.01,2013-07-09 04:11:00,
2013-07-08 23:16:00,78.8,70.6,29.76,WSW,251,0.0,14.0,76,0.00,,,0.01,VWS V14.01,2013-07-09 04:16:00,
2013-07-08 23:21:00,77.0,70.7,29.74,WSW,251,0.0,2.0,81,0.00,,,0.01,VWS V14.01,2013-07-09 04:21:00,
2013-07-08 23:26:00,76.3,70.8,29.74,WNW,302,3.0,5.0,83,0.01,,,0.02,VWS V14.01,2013-07-09 04:26:00,
2013-07-08 23:31:00,75.8,71.7,29.74,NNE,14,5.0,7.0,87,0.01,,,0.02,VWS V14.01,2013-07-09 04:31:00,
2013-07-08 23:37:00,75.4,71.9,29.76,North,1,1.0,5.0,89,0.01,,,0.02,VWS V14.01,2013-07-09 04:37:00,
2013-07-08 23:42:00,74.9,71.4,29.76,North,1,0.0,5.0,89,0.01,,,0.02,VWS V14.01,2013-07-09 04:42:00,
2013-07-08 23:46:00,74.6,71.2,29.76,North,1,0.0,5.0,89,0.02,,,0.03,VWS V14.01,2013-07-09 04:46:00,
2013-07-08 23:51:00,74.4,70.6,29.73,North,1,0.0,2.0,88,0.02,,,0.03,VWS V14.01,2013-07-09 04:51:00,
2013-07-08 23:56:00,74.0,70.6,29.73,North,1,0.0,2.0,89,0.03,,,0.04,VWS V14.01,2013-07-09 04:56:00,